Regional Weather Roundup
Issued by NWS

Home | Current Version | Previous Version | Graphics & Text | Print | Product List | Glossary On
Versions: 1 2 3 4 5 6 7 8 9 10 11 12 13 14 15 16 17 18 19 20 21 22 23 24 25 26 27 28 29 30 31 32 33 34 35 36 37 38 39 40 41 42 43 44 45 46 47 48 49 50
000
ASUS43 KLOT 081708
RWRIL

ILLINOIS REGIONAL WEATHER ROUNDUP
NATIONAL WEATHER SERVICE CHICAGO/ROMEOVILLE IL
1100 AM CST THU DEC 08 2016

NOTE: "FAIR" INDICATES FEW OR NO CLOUDS BELOW 12,000 FEET WITH NO
SIGNIFICANT WEATHER AND/OR OBSTRUCTIONS TO VISIBILITY.

* THESE STATIONS ARE NOT UNDER NWS QUALITY CONTROL. THEY ALSO MAY NOT
  REPORT WEATHER SUCH AS PRECIPITATION OR FOG.

ILZ001-002-007-009-015-016-024-081800-
NORTHWEST ILLINOIS

CITY           SKY/WX    TMP DP  RH WIND       PRES   REMARKS
MOLINE         CLOUDY    19   9  65 W21G26    30.42R WCI   3
STERLING*      FLURRIES  18  12  77 W23G30    30.36S WCI   0
SAVANNA*       FLURRIES  19  11  73 W17       30.37S WCI   4
$$

ILZ003-004-008-010-011-017-018-081800-
NORTH CENTRAL ILLINOIS

CITY           SKY/WX    TMP DP  RH WIND       PRES   REMARKS
ROCKFORD       FLURRIES  18  11  74 W21G28    30.33R WCI   1
FREEPORT*      FLURRIES  17  11  77 W16G24    30.33F WCI   1
ROCHELLE*      FLURRIES  17  11  77 W21G28    30.33S WCI   1
DE KALB*       FLURRIES  17  11  77 W25G31    30.30S WCI  -2
$$

ILZ005-006-012>014-019>023-081800-
NORTHEAST ILLINOIS

CITY           SKY/WX    TMP DP  RH WIND       PRES   REMARKS
CHICAGO-OHARE  PTSUNNY   19  10  68 W20       30.27S WCI   3
CHICAGO-MIDWAY FLURRIES  19   9  65 W15G25    30.29S WCI   5
AURORA         CLOUDY    19  11  70 W23       30.32R WCI   2
LANSING*       FLURRIES  19  13  77 W25G33    30.29F WCI   1
JOLIET*        FLURRIES  19  12  73 W13G22    30.34S WCI   7
WAUKEGAN       MOSUNNY   20  10  65 W13G24    30.22S WCI   7
DUPAGE AIRPORT CLOUDY    18   9  68 W24G30    30.29R WCI   0
KANKAKEE*      FLURRIES  19  12  74 W17G25    30.34F WCI   4
WHEELING       CLOUDY    19  10  68 W16G24    30.28S WCI   4
MORRIS*        FLURRIES  18  11  74 W22       30.33F WCI   1
ROMEOVILLE*    FLURRIES  18  14  84 W17       30.32S WCI   2
NORTHERLY ISL    N/A     20  10  65 W17         N/A  WCI   5
$$

LMZ740>746-081800-
SOUTHERN LAKE MICHIGAN

STATION/POSITION SKY/WX   TEMP    WIND        PRES    VSBY  WAVE
                          AIR SEA DIR/SP/G                  HT/PER
                          (F)     (DEG/KT/KT) (MB)    (MI)  (FT/S)
HARRISON CRIB              20     270/ 27/ 31   N/A
BURNHAM HARBOR             20     280/ 17/ 21   N/A
CALUMET HARBOR             19     240/ 15/ 21 1024.5R
BURNS HARBOR               21     260/ 24/ 30 1025.4R
MICHIGAN CITY              21     230/ 28/ 32   N/A
$$

ILZ025>027-034>036-040-047-049-050-058-095>099-081800-
WEST-CENTRAL ILLINOIS

CITY           SKY/WX    TMP DP  RH WIND       PRES   REMARKS
QUINCY         MOSUNNY   21   9  59 W20       30.50S WCI   6
GALESBURG*     CLOUDY    17  10  73 W18G26    30.44R WCI   1
MACOMB*        CLOUDY    20  11  67 W22       30.49S WCI   4
JACKSONVILLE*  CLOUDY    21  12  68 W20       30.48S WCI   6
PITTSFIELD*    MOSUNNY   22  12  63 W15       30.51S WCI   9
$$

ILZ028>032-037-038-041>044-048-051>054-059>061-081800-
CENTRAL ILLINOIS

CITY           SKY/WX    TMP DP  RH WIND       PRES   REMARKS
PONTIAC        CLOUDY    21  13  70 W24       30.38S WCI   5
BLOOMINGTON    FLURRIES  20  13  74 W23G29    30.38R WCI   3
DECATUR        CLOUDY    21  11  65 W15G24    30.43S WCI   8
PEORIA         CLOUDY    19   9  65 NW17G26   30.44R WCI   4
LACON*         FLURRIES  19  10  67 W15G28    30.40F WCI   5
LINCOLN*       CLOUDY    22  13  67 W9G17     30.44S WCI  12
SPRINGFIELD    CLOUDY    22  12  65 W16       30.47R WCI   8
TAYLORVILLE    CLOUDY    21  12  69 W18       30.47S WCI   6
$$

ILZ033-039-045-046-055>057-062-063-081800-
EAST-CENTRAL ILLINOIS

CITY           SKY/WX    TMP DP  RH WIND       PRES   REMARKS
CHAMPAIGN      FLURRIES  22  13  68 W25       30.40R WCI   5
RANTOUL*       CLOUDY    23  15  71 W21       30.38S WCI   8
MATTOON        CLOUDY    22  12  65 NW18G25   30.42R WCI   7
PARIS*         CLOUDY    22  15  75 W20G25    30.41S WCI   7
$$

ILZ079-100>102-081800-
SOUTHWEST ILLINOIS

CITY           SKY/WX    TMP DP  RH WIND       PRES   REMARKS
ALTON          MOSUNNY   25  12  58 NW15G21   30.50S WCI  12
BELLEVILLE     SUNNY     28  13  52 W18       30.49S WCI  15
CAHOKIA*       SUNNY     26  11  52 W17       30.52S WCI  13
SPARTA*        SUNNY     27  13  56 W14       30.51F WCI  15
$$

ILZ064>066-069>071-074>076-080>082-084>086-088>090-092>094-081800-
SOUTH-CENTRAL ILLINOIS

CITY           SKY/WX    TMP DP  RH WIND       PRES   REMARKS
CARBONDALE     SUNNY     29  14  53 NW10      30.51S WCI  20
CAIRO*         SUNNY     30  13  49 NW9       30.53S WCI  22
EFFINGHAM*     PTSUNNY   26  17  69 W20       30.47S WCI  12
MARION         SUNNY     30  16  55 W14       30.50F WCI  20
CENTRALIA*     MOSUNNY   27  17  65 W17       30.47F WCI  15
SALEM*         PTSUNNY   27  15  59 W18       30.47S WCI  14
METROPOLIS*    SUNNY     31  14  48 NW8       30.51S WCI  24
$$

ILZ067-068-072-073-078-083-087-091-081800-
SOUTHEAST ILLINOIS

CITY           SKY/WX    TMP DP  RH WIND       PRES   REMARKS
LAWRENCEVILLE  MOSUNNY   28  15  58 W15G25    30.44S WCI  16
FLORA*         MOSUNNY   28  16  60 NW17      30.47S WCI  16
FAIRFIELD*     MOSUNNY   28  16  60 W8        30.47S WCI  20
HARRISBURG*    SUNNY     31  17  55 NW14      30.49F WCI  20
ROBINSON*      PTSUNNY   25  16  67 W18G24    30.45S WCI  12
CARMI*         SUNNY     30  18  61 NW17      30.47F WCI  18
$$

ABBREVIATIONS USED IN REMARKS
   TC - TEMPERATURE IN CELSIUS
  WCI - WIND CHILL INDEX
   HX - HEAT INDEX
  VSB - VISIBILITY
$$





USA.gov is the U.S. government's official web portal to all federal, state and local government web resources and services.